Regional Weather Roundup
Issued by NWS Upton, NY

Current Version | Previous Version | Graphics & Text | Print | Product List | Glossary Off
Versions: 1 2 3 4 5 6 7 8 9 10 11 12 13 14 15 16 17 18 19 20 21 22 23 24 25 26 27 28 29 30 31 32 33 34 35 36 37 38 39 40 41 42 43 44 45 46 47 48 49 50

000
ASUS41 KOKX 060708
RWROKX

REGIONAL WEATHER ROUNDUP
NATIONAL WEATHER SERVICE NEW YORK NY
300 AM EDT MON JUL 06 2015

NOTE: "FAIR" INDICATES FEW OR NO CLOUDS BELOW 12,000 FEET WITH NO
SIGNIFICANT WEATHER AND/OR OBSTRUCTIONS TO VISIBILITY.

NYZ071-072-176-178-NJZ106-104-060800-
NEW YORK CITY METRO AREA


CITY           SKY/WX    TMP DP  RH WIND       PRES   REMARKS
CENTRAL PARK   MOCLDY    74  65  73 CALM      30.17S
LAGUARDIA APRT MOCLDY    74  66  76 S5        30.13S
KENNEDY INTL   MOCLDY    70  66  87 S8        30.16R
NEWARK/LIBERTY MOCLDY    71  66  84 SW5       30.14S
BRNX BOT. GARD   N/A     68  64  88 CALM      30.16S
TETERBORO      MOCLDY    71  65  81 CALM      30.13S
$$

NYZ177-179-078>081-060800-
LONG ISLAND NEW YORK

CITY           SKY/WX    TMP DP  RH WIND       PRES   REMARKS
FARMINGDALE    MOCLDY    70  67  90 S5        30.15S
ISLIP          MOCLDY    68  65  90 CALM      30.14S
SHIRLEY        MOCLDY    66  63  90 CALM      30.16S
WESTHAMPTON    MOCLDY    60  58  92 CALM      30.17S
MONTAUK POINT    N/A     66  62  87 CALM      30.17S
$$

NYZ052-065-067-060800-
HUDSON VALLEY

CITY           SKY/WX    TMP DP  RH WIND       PRES   REMARKS
WHITE PLAINS   PTCLDY    66  64  93 CALM      30.15S FOG
NEWBURGH       NOT AVBL
MONTGOMERY     PTCLDY    61  60  97 S3        30.14S FOG
POUGHKEEPSIE   PTCLDY    62  59  90 N3        30.14S
ALBANY         MOCLDY    60  56  86 CALM      30.15R
$$

NJZ001-105-106-008-010-013-015-019>022-104-060800-
NEW JERSEY

CITY           SKY/WX    TMP DP  RH WIND       PRES   REMARKS
NEWARK/LIBERTY MOCLDY    71  66  84 SW5       30.14S
TETERBORO      MOCLDY    71  65  81 CALM      30.13S
CALDWELL       MOCLDY    66  62  87 CALM      30.15S
MORRISTOWN     FOG       64  61  88 CALM      30.15F VSB 3/4
SOMERVILLE     MOCLDY    63  61  93 NW3       30.13S FOG
SUSSEX         FOG       62  61  96 CALM      30.16S VSB 1/4
ANDOVER          N/A     62  61  96 CALM      30.16F
TRENTON        MOCLDY    70  66  87 CALM      30.14F
MILLVILLE      CLOUDY    70  68  93 CALM      30.15R
ATLANTIC CITY  CLOUDY    67  65  93 CALM      30.15S
WRIGHTSTOWN    CLOUDY    67  66  99 CALM      30.13S
TOMS RIVER     CLOUDY    64  63  94 CALM      30.16S
BELMAR         CLOUDY    68  63  83 CALM      30.16S
$$

PAZ047>061-062-071-060800-
EASTERN PENNSYLVANIA

CITY           SKY/WX    TMP DP  RH WIND       PRES   REMARKS
PHILADELPHIA   CLOUDY    73  68  84 CALM      30.15S
ALLENTOWN      MOCLDY    65  63  93 CALM      30.15S FOG
SCRANTON       MOCLDY    63  57  81 E7        30.16F
$$

CTZ002-004>006-009-010-012-RIZ004-006-007-MAZ004-011-015-060800-
SOUTHERN NEW ENGLAND
 IN CT

CITY           SKY/WX    TMP DP  RH WIND       PRES   REMARKS
BRADLEY INTL   MOCLDY    62  60  93 N3        30.14S
HARTFORD       PTCLDY    66  63  90 CALM      30.14S
DANBURY        PTCLDY    61  57  87 SW3       30.17S
WTRBRY/OXFORD  PTCLDY    63  57  82 CALM      30.17S
BRIDGEPORT     MOCLDY    68  65  90 CALM      30.15R
MERIDEN        PTCLDY    64  61  90 CALM      30.14F FOG
NEW HAVEN      PTCLDY    63  61  93 CALM      30.15S
CHESTER        FAIR      66  63  88 CALM      30.16S
GROTON         CLEAR     65  63  93 CALM      30.14F
WILLIMANTIC    CLEAR     62  60  93 CALM      30.15S

 IN RI

CITY           SKY/WX    TMP DP  RH WIND       PRES   REMARKS
PROVIDENCE     CLEAR     67  63  87 CALM        N/A
BLOCK ISLAND   CLEAR     64  61  88 W7        30.16R
WESTERLY       CLEAR     62  60  93 CALM      30.16S

 IN MA

CITY           SKY/WX    TMP DP  RH WIND       PRES   REMARKS
BOSTON         CLEAR     71  61  70 W6        30.13S
WORCESTER      CLEAR     64  57  78 W6        30.17S
WESTFIELD      CLEAR     61  59  93 CALM      30.15S FOG
PROVINCETOWN   CLEAR     63   7  11 W7        30.13S
NANTUCKET      CLEAR     66  63  90 W9        30.15S
$$

ANZ330-335-338-340-345-350-353-355-060800-
COASTAL MARINE OBSERVATIONS


STATION/POSITION TIME  SKY/WX   TEMP    WIND        PRES    VSBY  WAVE
                                AIR SEA DIR/SP/G                  HT/PER
                 (UTC)          (F)     (DEG/KT/KT) (MB)    (MI)  (FT/S)
NY HARB ENTRANCE 0650            71 71  230/  8/  8 1020.8          3/ 8
4S FIRE IS       0603               70                N/A           3/ 8
20S FIRE ISLAND  0650            70 70  210/  6/  6 1020.9          3/ 7
GREAT SOUTH BAY  0600            72 75  250/  8/ 10   N/A
23SW MTP         0650            69 69  220/  6/  6 1020.8          3/ 8
HUDSON CANYON    NOT AVBL
KINGS POINT      0600            71 67  170/  3/  5 1020.1
CENTRAL LI SOUND NOT AVBL
EASTERN LI SOUND 0600            65 64  200/  4/  4   N/A
ROBBINS REEF     0600            72     190/  2/  3 1019.7
$$


>>>>>>>>>>>>>>>>>>>>>>>>>>>> KEY <<<<<<<<<<<<<<<<<<<<<<<<<<<
>                                                          <
>     SKY/WX - SKY CONDITION/PRESENT WEATHER               <
>     TMP    - TEMPERATURE IN FAHRENHEIT                   <
>     DP     - DEWPOINT IN FAHRENHEIT                      <
>     RH     - RELATIVE HUMIDITY IN PERCENT                <
>     WIND   - DIRECTION AND SPEED IN MPH                  <
>     PRES   - MEAN SEA LEVEL PRESSURE IN INCHES OF HG     <
>     WCI    - WIND CHILL INDEX                            <
>     VSB    - VISIBILITY IN MILES                         <
>     HX     - HEAT INDEX                                  <
>     TC     - TEMPERATURE IN CELSIUS                      <
>     VRB    - VARIABLE WIND DIRECTION                     <
>                                                          <
>>>>>>>>>>>>>>>>>>>>>>>>>>>> KEY <<<<<<<<<<<<<<<<<<<<<<<<<<<





USA.gov is the U.S. government's official web portal to all federal, state and local government web resources and services.